Location: Friedrichshafen
(47.6598°N, 9.4819°E)
Time: 00:13:01
(UTC+01:00)

ISS - Pass Details

Date: 12 January 2018
Orbit: 401 x 406 km, 51.6° (Epoch: 17 January)

Event Time Altitude Azimuth Distance (km) Brightness Sun altitude
Exits shadow 06:24:54 46° 266° (W) 554 -3.6 -16.7°
Maximum altitude 06:25:38 63° 209° (SSW) 457 -3.7 -16.6°
Drops below altitude 10° 06:28:52 10° 128° (SE) 1,461 0.1 -16.1°
Sets 06:30:57 0° 125° (SE) 2,319 1.4 -15.7°
